Regional Weather Roundup
Issued by NWS Albany, NY

Home | Current Version | Previous Version | Graphics & Text | Print | Product List | Glossary On
Versions: 1 2 3 4 5 6 7 8 9 10 11 12 13 14 15 16 17 18 19 20 21 22 23 24 25 26 27 28 29 30 31 32 33 34 35 36 37 38 39 40 41 42 43 44 45 46 47 48 49 50
000
ASUS41 KALY 061810
RWRALY

NEW YORK STATE HOURLY WEATHER ROUNDUP
NATIONAL WEATHER SERVICE ALBANY NY
200 PM EDT MON JUL 06 2015

NOTE: "FAIR" INDICATES FEW OR NO CLOUDS BELOW 12,000 FEET WITH NO
SIGNIFICANT WEATHER AND/OR NO OBSTRUCTIONS TO VISIBILITY.

NYZ032-033-038>043-046>054-057>066-NYZ062>081-061900-
EAST


CITY           SKY/WX    TMP DP  RH WIND       PRES   REMARKS
ALBANY         MOSUNNY   83  59  44 VRB3      30.15F
GLENS FALLS    SUNNY     80  62  54 S7        30.14F
POUGHKEEPSIE   MOSUNNY   83  66  56 S8        30.13F
NEWBURGH       PTSUNNY   79  68  69 VRB6      30.17F
MONTGOMERY     PTSUNNY   81  69  67 SW7       30.14F
WHITE PLAINS   PTSUNNY   80  63  55 S7        30.17S
ISLIP          CLOUDY    78  65  63 S8        30.16S
NEW YORK CITY  PTSUNNY   82  62  50 S10       30.15S
CENTRAL PARK   PTSUNNY   83  64  52 VRB5      30.18F
$$

NYZ005>009-017-018-044>046-055-056-061900-
CENTRAL


CITY           SKY/WX    TMP DP  RH WIND       PRES   REMARKS
FULTON         PTSUNNY   81  65  58 VRB6      30.10F
SYRACUSE       PTSUNNY   82  64  54 SE13      30.10F
ROME           SUNNY     84  58  40 CALM      30.14F
ELMIRA         CLOUDY    78  67  68 S3        30.12F
BINGHAMTON     PTSUNNY   74  65  73 S8        30.17F
MONTICELLO     PTSUNNY   75  66  73 S8        30.20F
$$

NYZ026>034-041>043-061900-
NORTH


CITY           SKY/WX    TMP DP  RH WIND       PRES   REMARKS
WATERTOWN      MOSUNNY   84  59  42 SW6       30.09F
FORT DRUM      NOT AVBL
MASSENA        MOSUNNY   82  59  45 SW7       30.12S
SARANAC LAKE   SUNNY     77  48  35 CALM      30.15F
PLATTSBURGH    SUNNY     77  62  59 SE10      30.12F
$$

NYZ001>004-010>016-019>021-061900-
WEST


CITY           SKY/WX    TMP DP  RH WIND       PRES   REMARKS
NIAGARA FALLS  MOSUNNY   84  64  50 VRB5      30.02F
BUFFALO        MOSUNNY   84  63  49 S8        30.04F
DUNKIRK        MOSUNNY   80  69  69 NE7       30.04F
JAMESTOWN      PTSUNNY   73  66  78 SE7       30.11F
WELLSVILLE     LGT RAIN  74  64  71 S8        30.17F
ROCHESTER      MOSUNNY   83  66  56 SE7       30.06F
PENN YAN       PTSUNNY   79  68  69 SE9       30.12F
$$

             KEY
       WCI = WIND CHILL INDEX
       VSB = VISIBILITY
       HX  = HEAT INDEX
$$



USA.gov is the U.S. government's official web portal to all federal, state and local government web resources and services.